Location: Napier
(39.4830°S, 176.9170°E)
Time: 09:44:35
(UTC+13:00)

Cosmos 1666 Rocket - Pass Details

Date: 24 January 2019
Orbit: 604 x 633 km, 82.5° (Epoch: 22 February)

Event Time Altitude Azimuth Distance (km) Brightness Sun altitude
Rises 21:01:36 0° 184° (S) 2,966 7.6 -5.2°
Reaches altitude 10° 21:03:53 10° 181° (S) 2,047 6.7 -5.6°
Maximum altitude 21:08:24 62° 99° (E) 717 3.7 -6.3°
Drops below altitude 10° 21:12:49 10° 18° (NNE) 2,004 5.7 -7.0°
Enters shadow 21:14:57 - 14° (NNE) 2,864 6.5 -7.4°
